Weather reports worldwide

Advertisment
Winterbourne No 2, United Kingdom (99062): temperature & dewpoint: 22.01.2020 06:00:00 - 28.01.2020 06:00:00 (GMT)Winterbourne No 2, United Kingdom (99062): temperature -20cm & temperature -100cm: 22.01.2020 06:00:00 - 28.01.2020 06:00:00 (GMT)Winterbourne No 2, United Kingdom (99062): precipitation: 22.01.2020 06:00:00 - 28.01.2020 06:00:00 (GMT)
Date & Time tt [°C] td [°C] tt -20cm [°C] tt -100cm [°C] rr [mm]
28.01.2020 06:00:00 1,8 -0,2 - - 0,0
28.01.2020 05:00:00 2,0 0,2 - - 0,0
28.01.2020 04:00:00 2,3 0,7 - - 0,0
28.01.2020 03:00:00 2,8 1,2 - - 0,0
28.01.2020 02:00:00 3,3 2,0 - - 0,0
28.01.2020 01:00:00 3,3 2,4 - - 0,0
28.01.2020 00:00:00 3,7 2,6 - - 0,0
27.01.2020 23:00:00 4,3 3,5 - - 0,0
27.01.2020 22:00:00 4,2 3,8 - - 0,0
27.01.2020 21:00:00 4,4 3,8 - - 0,6
27.01.2020 20:00:00 4,2 4,0 - - 0,0
27.01.2020 19:00:00 4,2 3,7 - - 0,0
27.01.2020 18:00:00 4,5 4,0 - - 0,6
27.01.2020 17:00:00 4,9 4,0 - - 2,6
27.01.2020 16:00:00 5,1 4,3 - - 0,2
27.01.2020 15:00:00 5,3 4,1 - - 1,4
27.01.2020 14:00:00 6,5 4,7 - - 0,0
27.01.2020 13:00:00 6,4 4,6 - - 0,0
27.01.2020 12:00:00 6,1 4,7 - - 0,0
27.01.2020 11:00:00 5,4 4,2 - - 0,2
27.01.2020 10:00:00 4,9 4,2 - - 0,0
27.01.2020 09:00:00 4,0 3,5 6,2 6,9 0,0
27.01.2020 08:00:00 4,1 3,3 - - 0,0
27.01.2020 07:00:00 4,6 3,6 - - 0,0
27.01.2020 06:00:00 5,2 4,0 - - 0,0
27.01.2020 05:00:00 5,0 4,3 - - 0,0
27.01.2020 04:00:00 5,0 3,7 - - 1,6
27.01.2020 03:00:00 5,9 5,4 - - 0,2
27.01.2020 02:00:00 5,8 5,3 - - 0,2
27.01.2020 01:00:00 5,9 5,5 - - 0,0
27.01.2020 00:00:00 5,5 5,4 - - 0,0
26.01.2020 23:00:00 5,7 5,4 - - 0,0
26.01.2020 22:00:00 6,0 5,9 - - 0,0
26.01.2020 21:00:00 5,7 5,6 - - 0,0
26.01.2020 20:00:00 5,6 5,1 - - 0,0
26.01.2020 19:00:00 6,3 5,8 - - 0,0
26.01.2020 18:00:00 6,7 5,9 - - 0,0
26.01.2020 17:00:00 8,0 7,2 - - 0,0
26.01.2020 16:00:00 8,1 7,5 - - 1,0
26.01.2020 15:00:00 8,2 7,3 - - 2,4
26.01.2020 14:00:00 8,4 7,7 - - 0,2
26.01.2020 13:00:00 8,0 7,4 - - 1,2
26.01.2020 12:00:00 7,7 6,5 - - 0,2
26.01.2020 11:00:00 8,1 5,6 - - 0,0
26.01.2020 10:00:00 7,1 4,9 - - 0,0
26.01.2020 09:00:00 6,1 5,0 6,2 6,7 0,0
26.01.2020 08:00:00 6,4 5,3 - - 0,0
26.01.2020 07:00:00 6,8 5,7 - - 0,0
26.01.2020 06:00:00 7,0 5,9 - - 0,0
26.01.2020 05:00:00 7,0 6,2 - - 0,0
26.01.2020 04:00:00 7,0 6,4 - - 0,0
26.01.2020 03:00:00 6,8 6,4 - - 0,2
26.01.2020 02:00:00 6,4 6,1 - - 0,0
26.01.2020 01:00:00 6,3 6,1 - - 0,0
26.01.2020 00:00:00 6,1 6,0 - - 0,0
25.01.2020 23:00:00 6,1 5,8 - - 0,0
25.01.2020 22:00:00 6,0 5,9 - - 0,0
25.01.2020 21:00:00 5,8 5,8 - - 0,0
25.01.2020 20:00:00 5,6 5,6 - - 0,0
25.01.2020 19:00:00 5,5 5,4 - - 0,0
25.01.2020 18:00:00 5,4 5,2 - - 0,0
25.01.2020 17:00:00 5,4 5,0 - - 0,0
25.01.2020 16:00:00 5,6 4,8 - - 0,0
25.01.2020 15:00:00 5,9 4,6 - - 0,0
25.01.2020 14:00:00 6,2 4,4 - - 0,0
25.01.2020 13:00:00 6,0 4,4 - - 0,0
25.01.2020 12:00:00 5,3 4,1 - - 0,0
25.01.2020 11:00:00 5,1 3,7 - - 0,0
25.01.2020 10:00:00 4,9 3,3 - - 0,0
25.01.2020 09:00:00 4,8 4,1 6,0 6,7 0,2
25.01.2020 08:00:00 4,7 4,1 - - 0,0
25.01.2020 07:00:00 4,8 4,2 - - 0,0
25.01.2020 06:00:00 4,9 4,2 - - 0,0
25.01.2020 05:00:00 4,9 4,3 - - 0,0
25.01.2020 04:00:00 5,0 4,6 - - 0,0
25.01.2020 03:00:00 5,1 4,7 - - 0,0
25.01.2020 02:00:00 5,0 4,7 - - 0,0
25.01.2020 01:00:00 5,1 4,6 - - 0,2
25.01.2020 00:00:00 5,2 4,5 - - 0,0
24.01.2020 23:00:00 5,2 4,6 - - 0,0
24.01.2020 22:00:00 5,3 4,6 - - 0,0
24.01.2020 21:00:00 5,4 4,6 - - 0,0
24.01.2020 20:00:00 5,4 4,7 - - 0,0
24.01.2020 19:00:00 5,4 4,7 - - 0,0
24.01.2020 18:00:00 5,4 4,6 - - 0,0
24.01.2020 17:00:00 5,6 4,9 - - 0,0
24.01.2020 16:00:00 5,8 5,1 - - 0,0
24.01.2020 15:00:00 6,2 5,1 - - 0,0
24.01.2020 14:00:00 6,4 5,1 - - 0,0
24.01.2020 13:00:00 6,6 5,1 - - 0,0
24.01.2020 12:00:00 6,8 5,1 - - 0,0
24.01.2020 11:00:00 6,5 5,2 - - 0,0
24.01.2020 10:00:00 6,2 5,4 - - 0,0
24.01.2020 09:00:00 6,0 5,5 5,9 6,7 0,0
24.01.2020 08:00:00 5,8 5,5 - - 0,0
24.01.2020 07:00:00 5,7 5,4 - - 0,0
24.01.2020 06:00:00 5,7 5,4 - - 0,0
24.01.2020 05:00:00 5,7 5,5 - - 0,0
24.01.2020 04:00:00 5,7 5,6 - - 0,0
24.01.2020 03:00:00 5,7 5,5 - - 0,0
24.01.2020 02:00:00 5,5 5,4 - - 0,0
24.01.2020 01:00:00 5,7 5,6 - - 0,0
24.01.2020 00:00:00 5,3 5,3 - - 0,0
23.01.2020 23:00:00 5,2 5,1 - - 0,2
23.01.2020 22:00:00 5,1 5,0 - - 0,0
23.01.2020 21:00:00 5,4 5,3 - - 0,0
23.01.2020 20:00:00 5,4 5,2 - - 0,0
23.01.2020 19:00:00 5,6 5,5 - - 0,0
23.01.2020 18:00:00 5,7 5,5 - - 0,0
23.01.2020 17:00:00 5,8 5,3 - - 0,0
23.01.2020 16:00:00 6,2 5,6 - - 0,0
23.01.2020 15:00:00 6,4 5,7 - - 0,0
23.01.2020 14:00:00 6,6 6,1 - - 0,0
23.01.2020 13:00:00 6,3 6,2 - - 0,0
23.01.2020 12:00:00 6,2 6,2 - - 0,0
23.01.2020 11:00:00 6,3 6,3 - - 0,0
23.01.2020 10:00:00 6,2 6,2 - - 0,0
23.01.2020 09:00:00 6,0 5,9 5,7 6,7 0,0
23.01.2020 08:00:00 5,9 5,9 - - 0,0
23.01.2020 07:00:00 5,9 5,8 - - 0,0
23.01.2020 06:00:00 6,1 6,0 - - 0,0
23.01.2020 05:00:00 6,3 6,1 - - 0,0
23.01.2020 04:00:00 6,7 6,6 - - 0,0
23.01.2020 03:00:00 7,0 6,8 - - 0,0
23.01.2020 02:00:00 7,5 7,4 - - 0,0
23.01.2020 01:00:00 7,3 7,2 - - 0,2
23.01.2020 00:00:00 7,2 7,1 - - 0,0
22.01.2020 23:00:00 7,4 7,3 - - 0,0
22.01.2020 22:00:00 7,7 7,5 - - 0,0
22.01.2020 21:00:00 7,8 7,6 - - 0,0
22.01.2020 20:00:00 7,8 7,5 - - 0,0
22.01.2020 19:00:00 8,3 7,9 - - 0,0
22.01.2020 18:00:00 8,7 8,2 - - 0,0
22.01.2020 17:00:00 9,1 8,4 - - 0,0
22.01.2020 16:00:00 9,9 8,6 - - 0,0
22.01.2020 15:00:00 10,5 8,6 - - 0,0
22.01.2020 14:00:00 10,3 8,5 - - 0,0
22.01.2020 13:00:00 9,4 8,5 - - 0,0
22.01.2020 12:00:00 8,9 8,4 - - 0,0
22.01.2020 11:00:00 8,0 7,8 - - 0,0
22.01.2020 10:00:00 7,6 7,5 - - 0,0
22.01.2020 09:00:00 7,2 7,1 4,7 6,7 0,0
22.01.2020 08:00:00 6,9 6,9 - - 0,0
22.01.2020 07:00:00 6,7 6,7 - - 0,0
22.01.2020 06:00:00 6,7 6,6 - - 0,0

tt = temperature
td = dewpoint
tt -20cm = temperature -20cm
tt -100cm = temperature -100cm
rr = precipitation

Next stations